Darstellungsparameter: Aktuell verwendete Einstellungen:
Skalierung der Graphiken ... ?
xyx+y,   Skalierungsfaktor:      Skalierung: Modus: x, Faktor: 1
Darstellungszeitraum ... ?
Vom - - bis: - -   Zeitraum: 08.05.2021 - 08.05.2021
Min/Max/Avg-Anzeige ... ?
Zeige MMA aktuell
Zeige MMA Monat
Zeige MMA alles
Zeige --A aktuell
Zeige --A Monat
Zeige --A alles
Keine MMA-Anzeige
MMA:
Keine MMA-Graphiken
MMA-Basis: 08.05.2021 - 08.05.2021
Quicknavigation für Darstellung... ?
Tage:      1T, 2T, 3T, 5T -1T -2T -3T -5T +1T +2T +3T +5T
Wochen: 1W, 2W, 3W -1W -2W -3W +1W +2W +3W
Monate: 1M, 3M, 6M -1M -3M -6M +1M +3M +6M
Jahre:    1J, 3J, 5J, 10J -1J -3J -5J -10J +1J +3J +5J +10J
Nutze für die Darstellung ... ?
Originaldaten oder Mittelwerte auf ...
Stundenbasis Tagesbasis Wochenbasis
Monatsbasis Jahresbasis      Datenbasis: Original-Daten
Darstellen als:
Statistik (Auto) Statistik J:M      Darstellung:

Der gewünschte Datumsbereich war nicht gültig/verfügbar und wurde korrigiert....
Das angegebene Enddatum (01.10.2023 23:59:59) liegt in der Zukunft.
Das angegebene Startdatum (03.09.2023 00:00:00) liegt in der Zukunft.


Zur Graphik,    zurück zur Übersicht aller Sensoren.
 
Tabellarische Datenbersicht: ?
 
Sensor: Nr:Datum:Temp:Feuchte:
Aussen-T/F 1 08-05-2021 02:05:17 1.8 C 48 %
2 08-05-2021 02:15:17 1.6 C 48 %
3 08-05-2021 02:25:17 1.5 C 48 %
4 08-05-2021 02:35:17 2 C 47 %
5 08-05-2021 02:45:17 1.7 C 48 %
6 08-05-2021 02:55:17 1.4 C 47 %
7 08-05-2021 03:05:17 1.2 C 48 %
8 08-05-2021 03:15:17 0.9 C 49 %
9 08-05-2021 03:25:17 0.9 C 50 %
10 08-05-2021 03:35:17 0.7 C 50 %
11 08-05-2021 03:45:17 0.6 C 51 %
12 08-05-2021 03:55:17 0.5 C 51 %
13 08-05-2021 04:05:17 0.6 C 51 %
14 08-05-2021 04:15:17 0.4 C 51 %
15 08-05-2021 04:25:17 0.4 C 51 %
16 08-05-2021 04:35:17 0.3 C 51 %
17 08-05-2021 04:45:17 0.4 C 52 %
18 08-05-2021 04:55:17 0.6 C 52 %
19 08-05-2021 05:05:17 0.2 C 51 %
20 08-05-2021 05:15:17 0.1 C 51 %
21 08-05-2021 05:25:17 0 C 52 %
22 08-05-2021 05:35:17 0.1 C 52 %
23 08-05-2021 05:45:17 0 C 52 %
24 08-05-2021 05:55:17 0 C 52 %
25 08-05-2021 06:05:17 -0.1 C 52 %
Sensor: Nr:Datum:Temp:Feuchte:
Aussen-T/F 26 08-05-2021 06:15:18 -0.2 C 51 %
27 08-05-2021 06:25:18 -0.1 C 52 %
28 08-05-2021 06:35:17 0.1 C 52 %
29 08-05-2021 06:45:17 0.5 C 52 %
30 08-05-2021 06:55:17 0.5 C 52 %
31 08-05-2021 07:05:17 1 C 51 %
32 08-05-2021 07:15:17 0.9 C 52 %
33 08-05-2021 07:25:17 1 C 51 %
34 08-05-2021 07:35:18 1.2 C 51 %
35 08-05-2021 07:45:17 1.8 C 51 %
36 08-05-2021 07:55:17 2 C 50 %
37 08-05-2021 08:05:17 2.5 C 50 %
38 08-05-2021 08:15:17 2.7 C 49 %
39 08-05-2021 08:25:18 3.1 C 48 %
40 08-05-2021 08:35:18 4.1 C 47 %
41 08-05-2021 08:45:18 4.5 C 45 %
42 08-05-2021 08:55:18 5.2 C 45 %
43 08-05-2021 09:05:18 5.8 C 43 %
44 08-05-2021 09:15:17 6.2 C 40 %
45 08-05-2021 09:25:17 7.7 C 40 %
46 08-05-2021 09:35:17 8.6 C 37 %
47 08-05-2021 09:45:17 8.9 C 36 %
48 08-05-2021 09:55:17 9.3 C 35 %
49 08-05-2021 10:05:17 9.6 C 35 %
50 08-05-2021 10:15:17 10.4 C 33 %
Sensor: Nr:Datum:Temp:Feuchte:
Aussen-T/F 51 08-05-2021 10:25:17 11.2 C 32 %
Sensor: Nr:Datum:Temp:Feuchte:
G-T/H 1 08-05-2021 02:05:17 11.1 C 63 %
2 08-05-2021 02:15:17 11.1 C 63 %
3 08-05-2021 02:25:17 11.1 C 63 %
4 08-05-2021 02:35:17 11.1 C 63 %
5 08-05-2021 02:45:17 11.1 C 63 %
6 08-05-2021 02:55:17 11.1 C 63 %
7 08-05-2021 03:05:17 11 C 63 %
8 08-05-2021 03:15:17 11 C 63 %
9 08-05-2021 03:25:17 11 C 63 %
10 08-05-2021 03:35:17 11 C 63 %
11 08-05-2021 03:45:17 11 C 63 %
12 08-05-2021 03:55:17 11 C 63 %
13 08-05-2021 04:05:17 10.9 C 64 %
14 08-05-2021 04:15:17 10.9 C 64 %
15 08-05-2021 04:25:17 10.8 C 63 %
16 08-05-2021 04:35:17 10.8 C 63 %
17 08-05-2021 04:45:17 10.8 C 63 %
18 08-05-2021 04:55:17 10.7 C 62 %
19 08-05-2021 05:05:17 10.7 C 62 %
20 08-05-2021 05:15:17 10.7 C 62 %
21 08-05-2021 05:25:17 10.7 C 62 %
22 08-05-2021 05:35:17 10.6 C 61 %
23 08-05-2021 05:45:17 10.6 C 61 %
24 08-05-2021 05:55:17 10.5 C 61 %
25 08-05-2021 06:05:17 10.5 C 61 %
Sensor: Nr:Datum:Temp:Feuchte:
G-T/H 26 08-05-2021 06:15:18 10.5 C 61 %
27 08-05-2021 06:25:18 10.5 C 60 %
28 08-05-2021 06:35:17 10.4 C 60 %
29 08-05-2021 06:45:17 10.4 C 60 %
30 08-05-2021 06:55:17 10.4 C 60 %
31 08-05-2021 07:05:17 10.4 C 60 %
32 08-05-2021 07:15:17 10.4 C 60 %
33 08-05-2021 07:25:17 10.4 C 60 %
34 08-05-2021 07:35:18 10.4 C 60 %
35 08-05-2021 07:45:17 10.4 C 61 %
36 08-05-2021 07:55:17 10.3 C 61 %
37 08-05-2021 08:05:17 10.4 C 61 %
38 08-05-2021 08:15:17 10.3 C 61 %
39 08-05-2021 08:25:18 10.3 C 61 %
40 08-05-2021 08:35:18 10.3 C 61 %
41 08-05-2021 08:45:18 10.3 C 61 %
42 08-05-2021 08:55:18 10.3 C 62 %
43 08-05-2021 09:05:18 10.3 C 62 %
44 08-05-2021 09:15:17 10.3 C 62 %
45 08-05-2021 09:25:17 10.3 C 62 %
46 08-05-2021 09:35:17 10.4 C 62 %
47 08-05-2021 09:45:17 10.3 C 62 %
48 08-05-2021 09:55:17 10.4 C 62 %
49 08-05-2021 10:05:17 10.3 C 62 %
50 08-05-2021 10:15:17 10.4 C 62 %
Sensor: Nr:Datum:Temp:Feuchte:
G-T/H 51 08-05-2021 10:25:17 10.3 C 63 %

Legende:
   Min
   Max


Maximal/Minimal-Werte vom 08.05.2021 - 08.05.2021

Sensor Min Max Avg
Temp
(Aussen-T/F)
-0.2 °C
08-05-2021  06:15:18
11.2 °C
08-05-2021  10:25:17
2.48 °C
Feuchte
(Aussen-T/F)
32 %
08-05-2021  10:25:17
52 %
08-05-2021  04:45:17
47.75 %
Temp
(G-T/H)
10.3 °C
08-05-2021  07:55:17
11.1 °C
08-05-2021  02:05:17
10.61 °C
Feuchte
(G-T/H)
60 %
08-05-2021  06:25:18
64 %
08-05-2021  04:05:17
61.84 %

Die Daten stammen von einer Davis Vantage Pro 2 Wetter-Station und werden unter Linux mit der Software wview2wettercgi und aufbereitet. Alle Angaben erfolgen ohne Gewähr für ihre Vollständigkeit oder Richtigkeit.
Kontakt: Rainer Krienke krienke@uni-koblenz.de . Meine Webseiten an der Uni Koblenz oder privat.
Version: $Revision: 0.78 $